When you browse on this site, cookies collect data to enhance your experience and personalize the content and advertising you see.
Visit our Privacy Policy to learn more. By continuing to use the site, you agree to this use of cookies and data.
  • en Suisse
  • Liste des pays
  • À 7 jours
  • Température de l'eau
  • Carte météo
  • Widgets météo
  • user-avatar
    Se connecter

    Météo par heure à Luna

    Ce jour, 25 Août, Dimanche

    Heure Température Précipitation Vent Pression Humidité
    00:00 +14°C° 0 mm 2 m/s 750 mmHg 94%
    01:00 +14°C° 0 mm 1 m/s 750 mmHg 94%
    02:00 +14°C° 0 mm 2 m/s 750 mmHg 95%
    03:00 +13°C° 0 mm 1 m/s 750 mmHg 95%
    04:00 +13°C° 0 mm 1 m/s 750 mmHg 95%
    05:00 +13°C° 0 mm 1 m/s 751 mmHg 95%
    06:00 +15°C° 0 mm 1 m/s 751 mmHg 89%
    07:00 +16°C° 0 mm 1 m/s 751 mmHg 83%
    08:00 +19°C° 0 mm 1 m/s 752 mmHg 76%
    09:00 +19°C° 0 mm 2 m/s 752 mmHg 70%
    10:00 +20°C° 0 mm 2 m/s 752 mmHg 64%
    11:00 +21°C° 0 mm 2 m/s 752 mmHg 58%
    12:00 +23°C° 0 mm 2 m/s 752 mmHg 57%
    13:00 +23°C° 0 mm 2 m/s 752 mmHg 55%
    14:00 +23°C° 0 mm 2 m/s 752 mmHg 53%
    15:00 +23°C° 0 mm 2 m/s 752 mmHg 58%
    16:00 +21°C° 0 mm 2 m/s 752 mmHg 62%
    17:00 +22°C° 0 mm 1 m/s 751 mmHg 67%
    18:00 +20°C° 0 mm 1 m/s 752 mmHg 71%
    19:00 +18°C° 0 mm 1 m/s 752 mmHg 75%
    20:00 +15°C° 0 mm 1 m/s 752 mmHg 80%
    21:00 +14°C° 0 mm 1 m/s 752 mmHg 82%
    22:00 +14°C° 0 mm 1 m/s 752 mmHg 85%
    23:00 +13°C° 0 mm 1 m/s 752 mmHg 88%

    Demain, 26 Août, Lundi

    Heure Température Précipitation Vent Pression Humidité
    00:00 +13°C° 0 mm 1 m/s 752 mmHg 89%
    01:00 +12°C° 0 mm 1 m/s 752 mmHg 90%
    02:00 +12°C° 0 mm 1 m/s 753 mmHg 91%
    03:00 +12°C° 0 mm 1 m/s 752 mmHg 92%
    04:00 +11°C° 0 mm 0 m/s 752 mmHg 92%
    05:00 +10°C° 0 mm 0 m/s 752 mmHg 93%
    06:00 +12°C° 0 mm 0 m/s 752 mmHg 87%
    07:00 +14°C° 0 mm 0 m/s 752 mmHg 80%
    08:00 +16°C° 0 mm 0 m/s 753 mmHg 74%
    09:00 +20°C° 0 mm 1 m/s 752 mmHg 69%
    10:00 +21°C° 0 mm 1 m/s 752 mmHg 64%
    11:00 +23°C° 0 mm 1 m/s 752 mmHg 59%
    12:00 +23°C° 0 mm 2 m/s 752 mmHg 58%
    13:00 +23°C° 0 mm 2 m/s 751 mmHg 57%
    14:00 +24°C° 0 mm 2 m/s 751 mmHg 55%
    15:00 +23°C° 0 mm 2 m/s 751 mmHg 60%
    16:00 +23°C° 0 mm 2 m/s 750 mmHg 65%
    17:00 +23°C° 0 mm 2 m/s 750 mmHg 70%
    18:00 +20°C° 0 mm 2 m/s 750 mmHg 75%
    19:00 +18°C° 0 mm 2 m/s 749 mmHg 80%
    20:00 +16°C° 0 mm 2 m/s 749 mmHg 86%
    21:00 +16°C° 0 mm 2 m/s 749 mmHg 87%
    22:00 +16°C° 0 mm 2 m/s 749 mmHg 88%
    23:00 +15°C° 0 mm 2 m/s 749 mmHg 89%

    Après-demain, 27 Août, Mardi

    Heure Température Précipitation Vent Pression Humidité
    00:00 +15°C° 0 mm 2 m/s 749 mmHg 90%
    01:00 +15°C° 0 mm 2 m/s 749 mmHg 91%
    02:00 +15°C° 0 mm 2 m/s 748 mmHg 91%
    03:00 +15°C° 0 mm 2 m/s 748 mmHg 93%
    04:00 +15°C° 0 mm 2 m/s 748 mmHg 95%
    05:00 +15°C° 0 mm 2 m/s 748 mmHg 96%
    06:00 +16°C° 0 mm 3 m/s 748 mmHg 92%
    07:00 +17°C° 0 mm 3 m/s 748 mmHg 88%
    08:00 +19°C° 0 mm 3 m/s 748 mmHg 84%
    09:00 +20°C° 0 mm 3 m/s 748 mmHg 78%
    10:00 +21°C° 0 mm 4 m/s 748 mmHg 72%
    11:00 +22°C° 0 mm 4 m/s 748 mmHg 67%
    12:00 +22°C° 0 mm 4 m/s 748 mmHg 64%
    13:00 +23°C° 0 mm 4 m/s 748 mmHg 62%
    14:00 +23°C° 0 mm 4 m/s 748 mmHg 59%
    15:00 +22°C° 0 mm 4 m/s 748 mmHg 62%
    16:00 +22°C° 0 mm 3 m/s 748 mmHg 65%
    17:00 +21°C° 0 mm 3 m/s 748 mmHg 68%
    18:00 +19°C° 0 mm 3 m/s 748 mmHg 72%
    19:00 +17°C° 0 mm 2 m/s 748 mmHg 76%
    20:00 +16°C° 0 mm 2 m/s 748 mmHg 79%
    21:00 +15°C° 0 mm 2 m/s 748 mmHg 80%
    22:00 +14°C° 0 mm 2 m/s 749 mmHg 82%
    23:00 +13°C° 0 mm 2 m/s 749 mmHg 83%

    28 Août, Mercredi

    Heure Température Précipitation Vent Pression Humidité
    00:00 +13°C° 0 mm 2 m/s 749 mmHg 86%
    01:00 +12°C° 0 mm 2 m/s 749 mmHg 89%
    02:00 +12°C° 0 mm 2 m/s 749 mmHg 91%
    03:00 +12°C° 0 mm 2 m/s 749 mmHg 93%
    04:00 +10°C° 0 mm 2 m/s 750 mmHg 95%
    05:00 +10°C° 0 mm 2 m/s 750 mmHg 96%
    06:00 +12°C° 0 mm 2 m/s 750 mmHg 90%
    07:00 +12°C° 0 mm 3 m/s 750 mmHg 83%
    08:00 +13°C° 0 mm 3 m/s 751 mmHg 77%
    09:00 +14°C° 0 mm 3 m/s 751 mmHg 70%
    10:00 +16°C° 0 mm 3 m/s 751 mmHg 63%
    11:00 +17°C° 0 mm 3 m/s 751 mmHg 57%
    12:00 +18°C° 0 mm 3 m/s 751 mmHg 54%
    13:00 +18°C° 0 mm 3 m/s 751 mmHg 50%
    14:00 +19°C° 0 mm 3 m/s 751 mmHg 47%
    15:00 +18°C° 0 mm 3 m/s 750 mmHg 52%
    16:00 +17°C° 0 mm 2 m/s 750 mmHg 56%
    17:00 +17°C° 0 mm 2 m/s 750 mmHg 60%
    18:00 +15°C° 0 mm 2 m/s 750 mmHg 63%
    19:00 +13°C° 0 mm 2 m/s 751 mmHg 67%
    20:00 +10°C° 0 mm 2 m/s 751 mmHg 70%
    21:00 +9°C° 0 mm 2 m/s 751 mmHg 72%
    22:00 +9°C° 0 mm 2 m/s 751 mmHg 74%
    23:00 +8°C° 0 mm 2 m/s 751 mmHg 77%

    29 Août, Jeudi

    Heure Température Précipitation Vent Pression Humidité
    00:00 +7°C° 0 mm 2 m/s 752 mmHg 79%
    01:00 +7°C° 0 mm 2 m/s 752 mmHg 81%
    02:00 +6°C° 0 mm 2 m/s 752 mmHg 83%
    03:00 +6°C° 0 mm 2 m/s 752 mmHg 84%
    04:00 +6°C° 0 mm 2 m/s 752 mmHg 86%
    05:00 +6°C° 0 mm 1 m/s 752 mmHg 88%
    06:00 +7°C° 0 mm 2 m/s 752 mmHg 81%
    07:00 +9°C° 0 mm 2 m/s 753 mmHg 74%
    08:00 +12°C° 0 mm 2 m/s 753 mmHg 67%
    09:00 +13°C° 0 mm 2 m/s 753 mmHg 61%
    10:00 +15°C° 0 mm 2 m/s 752 mmHg 56%
    11:00 +16°C° 0 mm 2 m/s 752 mmHg 50%
    12:00 +17°C° 0 mm 2 m/s 752 mmHg 49%
    13:00 +18°C° 0 mm 2 m/s 752 mmHg 48%
    14:00 +19°C° 0 mm 2 m/s 752 mmHg 48%
    15:00 +18°C° 0 mm 2 m/s 751 mmHg 53%
    16:00 +19°C° 0 mm 1 m/s 751 mmHg 59%
    17:00 +19°C° 0 mm 1 m/s 751 mmHg 64%
    18:00 +16°C° 0 mm 1 m/s 751 mmHg 69%
    19:00 +14°C° 0 mm 1 m/s 751 mmHg 73%
    20:00 +12°C° 0 mm 1 m/s 751 mmHg 77%
    21:00 +11°C° 0 mm 1 m/s 751 mmHg 79%
    22:00 +11°C° 0 mm 1 m/s 751 mmHg 81%
    23:00 +10°C° 0 mm 1 m/s 751 mmHg 82%

    30 Août, Vendredi

    Heure Température Précipitation Vent Pression Humidité
    00:00 +10°C° 0 mm 1 m/s 751 mmHg 83%
    01:00 +10°C° 0 mm 1 m/s 751 mmHg 84%
    02:00 +10°C° 0 mm 1 m/s 751 mmHg 85%
    03:00 +9°C° 0 mm 1 m/s 750 mmHg 85%
    04:00 +9°C° 0 mm 1 m/s 750 mmHg 86%
    05:00 +9°C° 0 mm 1 m/s 750 mmHg 87%
    06:00 +11°C° 0 mm 1 m/s 750 mmHg 80%
    07:00 +13°C° 0 mm 1 m/s 751 mmHg 73%
    08:00 +15°C° 0 mm 1 m/s 751 mmHg 66%
    09:00 +16°C° 0 mm 1 m/s 751 mmHg 62%
    10:00 +19°C° 0 mm 1 m/s 751 mmHg 58%
    11:00 +21°C° 0 mm 1 m/s 751 mmHg 53%
    12:00 +21°C° 0 mm 1 m/s 751 mmHg 53%
    13:00 +21°C° 0 mm 1 m/s 751 mmHg 53%
    14:00 +22°C° 0 mm 1 m/s 750 mmHg 53%
    15:00 +21°C° 0 mm 1 m/s 750 mmHg 58%
    16:00 +21°C° 0 mm 1 m/s 750 mmHg 63%
    17:00 +20°C° 0 mm 1 m/s 750 mmHg 69%
    18:00 +19°C° 0 mm 1 m/s 750 mmHg 73%
    19:00 +16°C° 0 mm 1 m/s 750 mmHg 78%
    20:00 +13°C° 0 mm 0 m/s 750 mmHg 82%
    21:00 +13°C° 0 mm 0 m/s 751 mmHg 83%
    22:00 +13°C° 0 mm 1 m/s 751 mmHg 84%
    23:00 +13°C° 0 mm 1 m/s 751 mmHg 85%
    Voir plus